[[{"header":{"parameterUnit":"m.s-1","parameterCategory":1,"la1":30.2991,"la2":30.254,"lo1":-89.0895,"lo2":-89.0444,"dy":0.0017,"dx":0.0017,"nx":28,"ny":28,"refTime":"2025-09-01T21:00:00:Z","depth":0,"parameterNumber":2,"parameterNumberName":"U-component_of_WINDS"},"data":[0,0,0,0,0,0,0,0,0,0,0,0,0,0,0,0,0,0,0,0,0,0,0,0,0,0,0,0,0,0,0,0,0,0,0,0,0,0,0,0,0,0,0,0,0,0,0,0,0,0,0,0,0,0,0,0,0,0,-4.792,-4.7921,0,-4.8049,-4.805,-4.8052,-4.8001,-4.7998,-4.7995,-4.7992,-4.8127,-4.8134,-4.814,0,0,0,0,0,0,0,0,0,0,0,0,0,-4.7633,-4.7638,-4.792,-4.7921,-4.7923,-4.8049,-4.805,-4.8052,-4.8001,-4.7998,-4.7994,-4.7991,-4.8125,-4.8133,-4.8141,0,0,0,0,0,0,0,0,0,0,0,0,0,-4.7759,-4.764,-4.7919,-4.7913,-4.7913,-4.8048,-4.8051,-4.8053,-4.8002,-4.7998,-4.7993,-4.7989,-4.8123,-4.8132,-4.8142,-4.8292,0,0,-4.8171,-4.8175,0,0,0,0,0,0,0,0,-4.7752,-4.777,-4.7912,-4.7913,-4.7914,-4.8004,-4.7999,-4.8133,-4.8003,-4.7969,-4.7992,-4.7987,-4.809,-4.8102,-4.8137,-4.8298,-4.8304,-4.8172,-4.8178,-4.8182,-4.8185,0,0,0,0,0,0,0,-4.7743,-4.7764,-4.7971,-4.7914,-4.7916,-4.7904,-4.7917,-4.8024,-4.8053,-4.7971,-4.7968,-4.7984,-4.809,-4.8127,-4.8139,-4.8306,-4.8172,-4.818,-4.8186,-4.819,-4.86,-4.8605,0,0,0,0,0,0,-4.7734,-4.7757,-4.7967,-4.7975,-4.782,-4.7913,-4.7928,-4.798,-4.8052,-4.8059,-4.7987,-4.7981,-4.8113,-4.8128,-4.8144,-4.8327,-4.8182,-4.8191,-4.8196,-4.8595,-4.8601,-4.8607,0,0,0,0,0,0,-4.7728,-4.7753,-4.7962,-4.7865,-4.7891,-4.7923,-4.7982,-4.7985,-4.8022,-4.8064,-4.8069,-4.802,-4.811,-4.813,-4.8256,-4.8331,-4.8195,-4.8204,-4.8589,-4.8597,-4.8604,-4.8692,0,0,0,0,0,0,-4.772,-4.7751,-4.7808,-4.7867,-4.7896,-4.8071,-4.7987,-4.7991,-4.8039,-4.8031,-4.8096,-4.8103,-4.8108,-4.8242,-4.8265,-4.8341,-4.8211,-4.8582,-4.8592,-4.8601,-4.8683,-4.8702,-4.8718,0,0,0,0,0,-4.771,-4.7827,-4.7811,-4.7836,-4.7967,-4.8075,-4.8092,-4.8095,-4.8045,-4.8103,-4.813,-4.8101,-4.8318,-4.8255,-4.8281,-4.8361,-4.8578,-4.859,-4.8601,-4.8675,-4.8698,-4.8718,0,0,0,0,0,0,-4.7777,-4.7835,-4.7817,-4.7957,-4.8012,-4.8066,-4.8139,-4.8119,-4.8189,-4.818,-4.8181,-4.8196,-4.8326,-4.8356,-4.8285,-4.8512,-4.8441,-4.8458,-4.8488,-4.851,-4.8528,-4.8519,-4.8219,0,0,0,0,0,-4.7808,-4.789,-4.7936,-4.8055,-4.8083,-4.8107,-4.8154,-4.8151,-4.8208,-4.8231,-4.8267,-4.8324,-4.8406,-4.8459,-4.8536,-4.8686,-4.8701,-4.8754,-4.8772,-4.8786,-4.8802,-4.8886,-4.8911,-4.8644,-4.8644,-4.8644,0,0,-4.7874,-4.7915,-4.7967,-4.807,-4.8112,-4.8198,-4.8126,-4.822,-4.8284,-4.8245,-4.8366,-4.8395,-4.8459,-4.8598,-4.8661,-4.8627,-4.8878,-4.8801,-4.8812,-4.882,-4.89,-4.8926,-4.8948,-4.8652,-4.8651,-4.865,0,0,-4.8037,-4.8076,-4.818,-4.8224,-4.8287,-4.8302,-4.8327,-4.8385,-4.8403,-4.8524,-4.8497,-4.8574,-4.8714,-4.8761,-4.8803,-4.8986,-4.8963,-4.9011,-4.9104,-4.9186,-4.9207,-4.9226,-4.9294,-4.9318,-4.9026,-4.9026,-4.9026,0,-4.8111,-4.8238,-4.8237,-4.8333,-4.8381,-4.8348,-4.8456,-4.8498,-4.8584,-4.8618,-4.8578,-4.8753,-4.8794,-4.8945,-4.8989,-4.9024,-4.9054,-4.9004,-4.9204,-4.9223,-4.924,-4.9305,-4.933,-4.9032,-4.9031,-4.903,-4.903,0,-4.8327,-4.8415,-4.8492,-4.8576,-4.8632,-4.8733,-4.8749,-4.8805,-4.8798,-4.8818,-4.8943,-4.899,-4.9078,-4.9113,-4.9107,-4.9264,-4.9241,-4.9202,-4.9131,-4.9271,-4.9332,-4.9357,-4.904,-4.9038,-4.9036,-4.9035,0,0,-4.8537,-4.8619,-4.8648,-4.8686,-4.8755,-4.8824,-4.8924,-4.9009,-4.9059,-4.9119,-4.9205,-4.9324,-4.929,-4.9338,-4.9337,-4.9408,-4.9553,-4.9362,-4.9363,-4.9398,-4.9732,-4.9762,-4.9791,-4.9537,-4.9542,-4.9545,-4.9728,0,-4.8708,-4.8883,-4.8886,-4.9048,-4.9131,-4.9102,-4.919,-4.9242,-4.9263,-4.9338,-4.9361,-4.9447,-4.9394,-4.9423,-4.9492,-4.9521,-4.9621,-4.9507,-4.9619,-4.9623,-4.9607,-4.9822,-4.9854,-5.0024,-4.9751,-4.9755,-4.9758,0,-4.8931,-4.8999,-4.9169,-4.9227,-4.9262,-4.9341,-4.9419,-4.949,-4.955,-4.956,-4.9614,-4.9603,-4.9707,-4.9631,-4.9777,-4.9699,-4.9745,-4.9766,-4.9773,-4.9786,-4.9701,-4.9843,-5.0077,-5.0104,-4.9795,-4.9792,-4.9789,0,-4.9071,-4.9204,-4.9324,-4.9357,-4.9427,-4.9484,-4.9516,-4.957,-4.9621,-4.969,-4.9724,-4.9804,-4.9849,-4.9912,-4.9923,-4.9866,-5.007,-4.9994,-5.0084,-5.0084,-5.013,-5.0127,-5.0378,-5.0155,-5.0155,-5.0154,-5.0154,0,-4.9263,-4.9369,-4.9388,-4.9462,-4.9581,-4.9582,-4.97,-4.9728,-4.9777,-4.9857,-4.9836,-4.9912,-4.9921,-5.0,-5.0009,-5.013,-5.0149,-5.0162,-5.0164,-5.0166,-5.0165,-5.0198,-5.0187,-5.0161,-5.016,-5.0158,-5.0157,0,-4.944,-4.9457,-4.9586,-4.9641,-4.9658,-4.9743,-4.9791,-4.9863,-4.9881,-4.9983,-5.0007,-5.0037,-5.0129,-5.0146,-5.0254,-5.0261,-5.0405,-5.0394,-5.0385,-5.0385,-5.0474,-5.0467,-5.0757,-5.0796,-5.0546,-5.0548,-5.055,0,-4.9563,-4.9644,-4.9708,-4.976,-4.9794,-4.9878,-4.993,-4.9935,-4.999,-5.0065,-5.0128,-5.0217,-5.029,-5.0438,-5.0471,-5.0554,-5.0546,-5.0642,-5.0559,-5.0559,-5.0551,-5.0547,-5.0557,-5.0659,-5.0662,-5.0664,-5.0666,0,-4.978,-4.9784,-4.9859,-4.9939,-5.0001,-5.0064,-5.0123,-5.0167,-5.018,-5.0244,-5.0337,-5.0393,-5.0504,-5.0594,-5.0678,-5.0712,-5.0693,-5.0691,-5.0717,-5.0721,-5.0714,-5.0722,-5.0432,-5.0685,-5.0683,-5.0682,-5.0681,-5.068,-4.9935,-5.0007,-5.0063,-5.0149,-5.0194,-5.025,-5.0321,-5.0348,-5.0425,-5.0516,-5.0514,-5.0617,-5.0676,-5.0786,-5.0826,-5.0907,-5.0877,-5.0914,-5.0923,-5.0933,-5.0943,-5.0698,-5.0922,-5.0922,-5.0921,-5.0921,-5.092,0,-5.0153,-5.0188,-5.0267,-5.035,-5.0418,-5.0392,-5.0456,-5.0515,-5.0606,-5.0662,-5.0733,-5.0842,-5.0929,-5.0968,-5.1055,-5.1113,-5.1107,-5.1136,-5.1134,-5.1142,-5.0964,-5.0934,-5.114,-5.114,-5.114,-5.114,-5.114,-5.114,-5.0275,-5.0395,-5.0407,-5.055,-5.0584,-5.0684,-5.0724,-5.0776,-5.0821,-5.0943,-5.1015,-5.104,-5.109,-5.118,-5.126,-5.127,-5.1304,-5.1338,-5.1344,-5.1177,-5.1155,-5.1133,-5.1106,-5.1345,-5.1345,-5.1516,-5.1518,-5.1519]},{"header":{"parameterUnit":"m.s-1","parameterCategory":1,"la1":30.2991,"la2":30.254,"lo1":-89.0895,"lo2":-89.0444,"dy":0.0017,"dx":0.0017,"nx":28,"ny":28,"refTime":"2025-09-01T21:00:00:Z","depth":0,"parameterNumber":3,"parameterNumberName":"V-component_of_WINDS"},"data":[0,0,0,0,0,0,0,0,0,0,0,0,0,0,0,0,0,0,0,0,0,0,0,0,0,0,0,0,0,0,0,0,0,0,0,0,0,0,0,0,0,0,0,0,0,0,0,0,0,0,0,0,0,0,0,0,0,0,-1.7523,-1.7523,0,-1.7474,-1.7474,-1.7473,-1.7393,-1.7392,-1.739,-1.7389,-1.7341,-1.7341,-1.7341,0,0,0,0,0,0,0,0,0,0,0,0,0,-1.7549,-1.7549,-1.7523,-1.7523,-1.7522,-1.7474,-1.7474,-1.7473,-1.7393,-1.7392,-1.739,-1.7388,-1.7341,-1.7341,-1.7341,0,0,0,0,0,0,0,0,0,0,0,0,0,-1.7523,-1.7549,-1.7523,-1.7476,-1.7472,-1.7475,-1.7474,-1.7473,-1.7394,-1.7392,-1.7389,-1.7387,-1.7341,-1.7341,-1.7341,-1.7386,0,0,-1.7341,-1.7342,0,0,0,0,0,0,0,0,-1.7524,-1.7522,-1.7484,-1.748,-1.7474,-1.7437,-1.7465,-1.7444,-1.7394,-1.7423,-1.7389,-1.7386,-1.7375,-1.7372,-1.7368,-1.7384,-1.7382,-1.7341,-1.7342,-1.7342,-1.7342,0,0,0,0,0,0,0,-1.7526,-1.7523,-1.7504,-1.7483,-1.7478,-1.7458,-1.7452,-1.7461,-1.7412,-1.7421,-1.7415,-1.741,-1.7372,-1.7368,-1.7366,-1.7381,-1.7341,-1.7342,-1.7342,-1.7342,-1.7431,-1.7433,0,0,0,0,0,0,-1.7535,-1.7525,-1.7505,-1.7502,-1.7494,-1.746,-1.7453,-1.7452,-1.7412,-1.7404,-1.7412,-1.7406,-1.7369,-1.7366,-1.7364,-1.7414,-1.7342,-1.7342,-1.7342,-1.7429,-1.7432,-1.7434,0,0,0,0,0,0,-1.7535,-1.7534,-1.7507,-1.7512,-1.7507,-1.7461,-1.7461,-1.7452,-1.7448,-1.7405,-1.7396,-1.7417,-1.7367,-1.7364,-1.7381,-1.7411,-1.7342,-1.7342,-1.7426,-1.743,-1.7433,-1.7514,0,0,0,0,0,0,-1.7537,-1.7534,-1.7551,-1.7513,-1.7507,-1.7525,-1.7463,-1.7452,-1.7448,-1.744,-1.7407,-1.74,-1.7365,-1.7381,-1.7381,-1.741,-1.7342,-1.7423,-1.7428,-1.7432,-1.7509,-1.752,-1.753,0,0,0,0,0,-1.7538,-1.7576,-1.7552,-1.755,-1.7527,-1.7527,-1.7524,-1.7482,-1.7451,-1.7467,-1.744,-1.7401,-1.7408,-1.7384,-1.7383,-1.7412,-1.7421,-1.7427,-1.7432,-1.7504,-1.7518,-1.753,0,0,0,0,0,0,-1.762,-1.7571,-1.7543,-1.7571,-1.7554,-1.7513,-1.7533,-1.7498,-1.749,-1.7483,-1.7433,-1.7426,-1.745,-1.7433,-1.7407,-1.7454,-1.7408,-1.7414,-1.7464,-1.7477,-1.7487,-1.7491,-1.7342,0,0,0,0,0,-1.7641,-1.7644,-1.7601,-1.763,-1.7622,-1.7579,-1.7578,-1.7547,-1.7528,-1.752,-1.7494,-1.7477,-1.7475,-1.7475,-1.7471,-1.7506,-1.7497,-1.7526,-1.7536,-1.7545,-1.755,-1.7567,-1.7579,-1.7451,-1.7451,-1.7451,0,0,-1.7685,-1.7658,-1.7664,-1.7646,-1.7629,-1.7634,-1.7574,-1.7582,-1.7585,-1.7521,-1.7535,-1.7516,-1.7493,-1.752,-1.753,-1.7506,-1.7584,-1.7552,-1.7559,-1.7559,-1.7573,-1.7586,-1.7596,-1.7455,-1.7454,-1.7453,0,0,-1.7767,-1.7748,-1.7769,-1.7753,-1.7728,-1.7699,-1.7704,-1.7669,-1.7653,-1.7666,-1.7618,-1.7622,-1.762,-1.7605,-1.7598,-1.7674,-1.7638,-1.7675,-1.773,-1.7747,-1.7757,-1.7765,-1.7792,-1.7802,-1.768,-1.768,-1.768,0,-1.7825,-1.783,-1.7785,-1.7795,-1.7788,-1.773,-1.7751,-1.7738,-1.7714,-1.771,-1.7684,-1.768,-1.7661,-1.7682,-1.7701,-1.7697,-1.7701,-1.7678,-1.7759,-1.7767,-1.7774,-1.7799,-1.781,-1.7685,-1.7684,-1.7684,-1.7683,0,-1.7903,-1.7907,-1.7927,-1.7904,-1.7899,-1.7916,-1.7872,-1.7873,-1.7843,-1.7817,-1.7831,-1.7806,-1.7795,-1.7798,-1.7769,-1.7816,-1.7801,-1.7768,-1.7721,-1.7792,-1.7815,-1.7824,-1.7691,-1.7689,-1.7688,-1.7687,0,0,-1.8036,-1.7986,-1.7994,-1.7983,-1.795,-1.7953,-1.7966,-1.7955,-1.7957,-1.7942,-1.7952,-1.7951,-1.7919,-1.7911,-1.7879,-1.7894,-1.7956,-1.7858,-1.7857,-1.7877,-1.8005,-1.803,-1.8042,-1.7932,-1.7933,-1.7934,-1.8007,0,-1.8112,-1.8131,-1.809,-1.8119,-1.8122,-1.8067,-1.8078,-1.806,-1.8036,-1.8035,-1.8008,-1.8008,-1.7967,-1.7961,-1.7973,-1.7946,-1.7981,-1.794,-1.794,-1.7941,-1.7948,-1.8054,-1.8081,-1.8151,-1.8015,-1.8017,-1.8018,0,-1.8203,-1.8191,-1.8221,-1.8186,-1.8185,-1.8197,-1.8183,-1.8183,-1.8161,-1.8142,-1.8132,-1.8095,-1.8106,-1.8061,-1.8075,-1.8048,-1.8046,-1.8033,-1.8034,-1.8033,-1.7984,-1.8055,-1.8172,-1.8182,-1.8031,-1.803,-1.8029,0,-1.8296,-1.8288,-1.8305,-1.8296,-1.8256,-1.8265,-1.8249,-1.8224,-1.822,-1.8208,-1.8205,-1.8195,-1.819,-1.8183,-1.8144,-1.8115,-1.8163,-1.8115,-1.8147,-1.8148,-1.816,-1.816,-1.8278,-1.8159,-1.8159,-1.8159,-1.8158,0,-1.8385,-1.8405,-1.8346,-1.8356,-1.8377,-1.833,-1.8352,-1.833,-1.8309,-1.8314,-1.8265,-1.8271,-1.8219,-1.822,-1.819,-1.8205,-1.8204,-1.8189,-1.818,-1.8193,-1.8195,-1.8191,-1.8185,-1.8161,-1.8161,-1.816,-1.816,0,-1.8493,-1.8454,-1.8468,-1.8429,-1.8419,-1.8437,-1.8403,-1.8411,-1.8383,-1.839,-1.8389,-1.8346,-1.8344,-1.8304,-1.8294,-1.8273,-1.8301,-1.8284,-1.8309,-1.8303,-1.8338,-1.8335,-1.8457,-1.847,-1.8344,-1.8345,-1.8346,0,-1.8552,-1.8566,-1.8528,-1.8528,-1.8513,-1.8514,-1.8509,-1.8463,-1.846,-1.8435,-1.8446,-1.8439,-1.8432,-1.8431,-1.8399,-1.839,-1.8372,-1.8416,-1.8371,-1.8383,-1.8373,-1.8372,-1.8373,-1.8425,-1.8427,-1.8428,-1.8429,0,-1.8661,-1.8641,-1.8635,-1.8624,-1.8619,-1.8607,-1.8593,-1.8595,-1.8544,-1.8544,-1.854,-1.8534,-1.8523,-1.8517,-1.8503,-1.8486,-1.845,-1.8444,-1.8451,-1.8463,-1.8477,-1.847,-1.8334,-1.8441,-1.844,-1.8439,-1.8438,-1.8438,-1.8746,-1.8756,-1.873,-1.8726,-1.871,-1.8697,-1.8702,-1.8675,-1.8671,-1.8658,-1.8631,-1.8632,-1.8608,-1.8585,-1.8572,-1.8572,-1.855,-1.856,-1.8563,-1.8566,-1.8573,-1.8477,-1.8569,-1.8569,-1.8568,-1.8568,-1.8568,0,-1.8852,-1.8832,-1.8829,-1.8809,-1.8806,-1.8771,-1.8753,-1.8752,-1.8753,-1.8735,-1.8728,-1.8724,-1.8718,-1.8685,-1.8676,-1.8682,-1.8665,-1.8681,-1.868,-1.8677,-1.8593,-1.8588,-1.8695,-1.8695,-1.8695,-1.8695,-1.8695,-1.8695,-1.8906,-1.8921,-1.8898,-1.8904,-1.8884,-1.8884,-1.8876,-1.8865,-1.8849,-1.8847,-1.8841,-1.882,-1.8795,-1.8783,-1.8776,-1.8767,-1.8765,-1.8787,-1.8772,-1.8695,-1.8683,-1.8671,-1.8666,-1.8787,-1.8788,-1.8855,-1.8856,-1.8857]}]]